Date String (YYYY-MM-DD hh:mm:ss) UTC,Instrument flags,Ambient pressure (hPa),Sample flow (lpm),Bypass flow (lpm),Sample temperature (°C),Ambient temperature (°C),ASC tube jacket temperature (°C),LED temperature (°C),Box temperature (°C),Sample RH (%),Span deviation,Mass concentration (μg/m³),Mass concentration (μg/m³),Mass concentration (μg/m³)
DateTimeUTC,F1_M11,P_M11,Q1_M11,Q2_M11,T1_M11,T2_M11,T3_M11,T4_M11,T5_M11,U1_M11,ZSPAN_M11,X0_M11,X2_M11,X1_M11
2022-08-08 06:00:00,,0832.9,5.00,0.00,30.9,28.9,00.0,39.5,32.2,33.3,0000.0,0006.42,0004.15,0003.80
2022-08-08 06:01:00,,0832.9,5.00,0.00,30.9,29.0,00.0,39.5,32.2,33.5,0000.0,0006.42,0004.13,0003.80
2022-08-08 06:02:00,,0832.8,5.00,0.00,30.9,29.0,00.0,39.5,32.2,33.2,0000.0,0006.34,0004.11,0003.78
2022-08-08 06:03:00,,0832.8,5.00,0.00,30.9,29.0,00.0,39.5,32.2,33.1,0000.0,0006.28,0004.09,0003.77
2022-08-08 06:04:00,,0832.8,5.00,0.00,30.9,29.1,00.0,39.5,32.3,32.8,0000.0,0006.33,0004.09,0003.74
2022-08-08 06:05:00,,0832.7,5.00,0.00,30.9,29.1,00.0,39.5,32.2,32.9,0000.0,0006.28,0004.06,0003.70
2022-08-08 06:06:00,,0832.7,5.00,0.00,30.8,28.5,00.0,39.4,32.1,32.7,0000.0,0006.11,0004.01,0003.66
2022-08-08 06:07:00,,0832.7,4.99,0.00,30.8,27.9,00.0,39.4,32.0,32.9,0000.0,0006.16,0003.99,0003.63
2022-08-08 06:08:00,,0832.8,5.01,0.00,30.7,27.7,00.0,39.3,31.9,33.2,0000.0,0006.14,0003.96,0003.60
2022-08-08 06:09:00,,0832.8,4.99,0.00,30.5,27.7,00.0,39.3,31.7,33.1,0000.0,0006.08,0003.94,0003.58
2022-08-08 06:10:00,,0832.7,5.01,0.00,30.5,27.8,00.0,39.3,31.8,32.9,0000.0,0006.05,0003.90,0003.54
2022-08-08 06:11:00,,0832.7,4.99,0.00,30.4,27.9,00.0,39.2,31.8,32.9,0000.0,0005.91,0003.84,0003.49
2022-08-08 06:12:00,,0832.7,4.99,0.00,30.4,28.0,00.0,39.2,31.8,32.7,0000.0,0005.94,0003.76,0003.41
2022-08-08 06:13:00,,0832.7,4.99,0.00,30.4,28.1,00.0,39.2,31.9,32.1,0000.0,0006.12,0003.70,0003.36
2022-08-08 06:14:00,,0832.7,5.00,0.00,30.4,28.2,00.0,39.1,31.9,31.7,0000.0,0005.77,0003.60,0003.29
2022-08-08 06:15:00,,0832.7,5.01,0.00,30.3,28.3,00.0,39.1,31.9,31.9,0000.0,0005.47,0003.50,0003.23
2022-08-08 06:16:00,,0832.7,4.99,0.00,30.3,28.4,00.0,39.1,31.9,32.1,0000.0,0005.28,0003.44,0003.18
2022-08-08 06:17:00,,0832.7,5.00,0.00,30.3,28.5,00.0,39.1,31.9,32.0,0000.0,0005.42,0003.38,0003.13
2022-08-08 06:18:00,,0832.7,5.00,0.00,30.3,28.6,00.0,39.1,31.9,31.8,0000.0,0006.52,0003.30,0003.05
2022-08-08 06:19:00,,0832.7,5.01,0.00,30.3,28.6,00.0,39.1,31.9,32.0,0000.0,0006.43,0003.24,0002.97
2022-08-08 06:20:00,,0832.7,5.00,0.00,30.3,28.7,00.0,39.1,32.0,32.2,0000.0,0006.36,0003.20,0002.88
2022-08-08 06:21:00,,0832.7,5.00,0.00,30.3,28.7,00.0,39.1,32.0,32.1,0000.0,0006.38,0003.20,0002.83
2022-08-08 06:22:00,,0832.7,5.00,0.00,30.3,28.8,00.0,39.1,32.0,31.9,0000.0,0006.47,0003.20,0002.83
2022-08-08 06:23:00,,0832.7,4.99,0.00,30.3,28.8,00.0,39.1,32.0,32.0,0000.0,0006.22,0003.20,0002.83
2022-08-08 06:24:00,,0832.7,5.00,0.00,30.3,28.9,00.0,39.1,32.0,32.1,0000.0,0005.94,0003.18,0002.81
2022-08-08 06:25:00,,0832.7,5.00,0.00,30.3,28.9,00.0,39.1,32.0,32.4,0000.0,0006.17,0003.21,0002.82
2022-08-08 06:26:00,,0832.6,5.01,0.00,30.3,28.9,00.0,39.1,32.0,32.5,0000.0,0006.36,0003.25,0002.84
2022-08-08 06:27:00,,0832.6,5.00,0.00,30.3,29.0,00.0,39.1,32.0,32.4,0000.0,0006.49,0003.28,0002.86
2022-08-08 06:28:00,,0832.6,5.01,0.00,30.3,29.0,00.0,39.1,32.0,32.3,0000.0,0006.26,0003.30,0002.88
2022-08-08 06:29:00,,0832.6,5.00,0.00,30.3,29.0,00.0,39.1,32.0,32.3,0000.0,0004.90,0003.31,0002.91
2022-08-08 06:30:00,,0832.6,5.00,0.00,30.3,28.5,00.0,39.0,32.0,32.3,0000.0,0004.88,0003.32,0002.93
2022-08-08 06:31:00,,0832.6,5.00,0.00,30.3,27.7,00.0,39.0,31.8,32.4,0000.0,0005.05,0003.32,0002.94
2022-08-08 06:32:00,,0832.6,5.00,0.00,30.2,27.2,00.0,38.9,31.7,32.4,0000.0,0005.06,0003.33,0002.96
2022-08-08 06:33:00,,0832.6,5.00,0.00,30.1,27.1,00.0,38.9,31.5,32.8,0000.0,0005.02,0003.33,0002.98
2022-08-08 06:34:00,,0832.6,5.00,0.00,30.0,27.2,00.0,38.8,31.5,34.1,0000.0,0005.06,0003.34,0002.99
2022-08-08 06:35:00,,0832.6,5.00,0.00,29.9,27.4,00.0,38.8,31.5,35.0,0000.0,0005.19,0003.38,0003.02
2022-08-08 06:36:00,,0832.6,5.00,0.00,30.0,27.5,00.0,38.8,31.6,34.5,0000.0,0005.07,0003.40,0003.08
2022-08-08 06:37:00,,0832.6,5.00,0.00,30.1,27.7,00.0,38.8,31.6,34.1,0000.0,0005.03,0003.41,0003.12
2022-08-08 06:38:00,,0832.6,5.00,0.00,30.2,27.9,00.0,38.8,31.7,34.5,0000.0,0005.06,0003.45,0003.16
2022-08-08 06:39:00,,0832.6,5.00,0.00,30.2,28.0,00.0,38.8,31.7,34.7,0000.0,0005.31,0003.52,0003.21
2022-08-08 06:40:00,,0832.6,5.00,0.00,30.2,28.1,00.0,38.8,31.7,34.7,0000.0,0005.70,0003.60,0003.27
2022-08-08 06:41:00,,0832.7,5.00,0.00,30.2,28.2,00.0,38.8,31.7,34.4,0000.0,0005.80,0003.65,0003.30
2022-08-08 06:42:00,,0832.7,5.01,0.00,30.2,28.4,00.0,38.8,31.7,34.2,0000.0,0005.98,0003.70,0003.34
2022-08-08 06:43:00,,0832.7,5.00,0.00,30.2,28.4,00.0,38.8,31.8,34.5,0000.0,0006.05,0003.74,0003.38
2022-08-08 06:44:00,,0832.7,5.01,0.00,30.2,28.5,00.0,38.8,31.8,34.6,0000.0,0006.18,0003.80,0003.43
2022-08-08 06:45:00,,0832.6,5.00,0.00,30.2,28.6,00.0,38.8,31.8,35.0,0000.0,0006.33,0003.86,0003.48
2022-08-08 06:46:00,,0832.6,4.99,0.00,30.3,28.7,00.0,38.9,31.9,35.3,0000.0,0006.28,0003.88,0003.52
2022-08-08 06:47:00,,0832.6,5.00,0.00,30.6,28.7,00.0,38.9,32.1,34.7,0000.0,0006.49,0003.95,0003.57
2022-08-08 06:48:00,,0832.7,5.00,0.00,30.9,28.8,00.0,38.9,32.1,33.5,0000.0,0006.59,0003.99,0003.59
2022-08-08 06:49:00,,0832.7,5.00,0.00,31.0,28.8,00.0,38.9,32.1,33.6,0000.0,0006.72,0004.01,0003.61
2022-08-08 06:50:00,,0832.6,5.00,0.00,31.0,28.9,00.0,39.0,32.1,33.5,0000.0,0006.85,0004.02,0003.62
2022-08-08 06:51:00,,0832.7,4.99,0.00,31.1,28.9,00.0,39.1,32.1,33.7,0000.0,0006.82,0004.02,0003.62
2022-08-08 06:52:00,,0832.7,5.00,0.00,31.1,29.0,00.0,39.1,32.1,33.7,0000.0,0007.03,0004.04,0003.63
2022-08-08 06:53:00,,0832.7,5.00,0.00,31.1,29.0,00.0,39.2,32.2,33.6,0000.0,0007.00,0004.06,0003.66
2022-08-08 06:54:00,,0832.6,5.00,0.00,31.1,29.0,00.0,39.2,32.2,33.4,0000.0,0006.95,0004.08,0003.68
2022-08-08 06:55:00,,0832.6,5.01,0.00,31.1,29.1,00.0,39.3,32.2,33.5,0000.0,0006.94,0004.09,0003.69
2022-08-08 06:56:00,,0832.6,5.00,0.00,31.1,29.1,00.0,39.3,32.2,34.8,0000.0,0007.01,0004.12,0003.71
2022-08-08 06:57:00,,0832.6,5.00,0.00,31.2,29.2,00.0,39.4,32.3,35.5,0000.0,0007.30,0004.19,0003.74
2022-08-08 06:58:00,,0832.6,4.99,0.00,31.5,29.2,00.0,39.4,32.5,35.4,0000.0,0007.46,0004.26,0003.78
2022-08-08 06:59:00,,0832.6,5.00,0.00,31.8,29.2,00.0,39.4,32.7,34.8,0000.0,0007.60,0004.34,0003.85
